Weather History for Fort Knox, KY

Change the Weather History Date:

Tuesday, July 10, 2012

  Actual Average Record
Temperature  
Mean Temperature 80 °F -  
Max Temperature 91 °F 83 °F 93 °F (2005)
Min Temperature 69 °F 64 °F 55 °F (1996)
Cooling Degree Days 14    
Growing Degree Days 30 (Base 50)    
Moisture  
Dew Point 61 °F    
Average Humidity 56    
Maximum Humidity 86    
Minimum Humidity 29    
Precipitation  
Precipitation 0.00 in - - ()
Sea Level Pressure  
Sea Level Pressure 29.98 in    
Wind  
Wind Speed 5 mph (NE)    
Max Wind Speed 10 mph    
Max Gust Speed 18 mph    
Visibility 10 miles    
Events      
Averages and records for this station are not official NWS values.
T = Trace of Precipitation, MM = Missing Value Source: NWS Daily Summary

Daily Weather History Graph

Daily Weather History Graph

Search for Another Location

Airport:

Trip Planner

Search our weather history database for the weather conditions in past years. The results will help you decide how hot, cold, wet, or windy it might be!

Date:

Astronomy

Jul. 10, 2012 Rise Set
Actual Time 6:30 AM EDT 9:07 PM EDT
Civil Twilight 5:59 AM EDT 9:38 PM EDT
Nautical Twilight 5:21 AM EDT 10:16 PM EDT
Astronomical Twilight 4:38 AM EDT 10:59 PM EDT
Moon 12:31 AM EDT (7/10) 1:47 PM EDT (7/10)
Length of Visible Light 15h 38m
Length of Day
14h 37m
Waning Gibbous, 54% of the Moon is Illuminated
Jul 10
Waning Gibbous
Jul 10
Last Quarter
Jul 19
New
Jul 26
First Quarter
Aug 1
Full

Hourly Weather History & Observations

Time (EDT) Temp. Heat Index Dew Point Humidity Pressure Visibility Wind Dir Wind Speed Gust Speed Precip Events Conditions
12:55 AM 69.3 °F - 64.0 °F 83% 29.99 in 10.0 mi NNE 4.6 mph - N/A   Clear
1:55 AM 70.7 °F - 66.2 °F 86% 29.98 in 10.0 mi Calm Calm - N/A   Overcast
2:55 AM 70.7 °F - 63.7 °F 78% 29.97 in 10.0 mi NNE 3.5 mph - N/A   Mostly Cloudy
3:55 AM 70.2 °F - 63.1 °F 78% 29.97 in 10.0 mi North 6.9 mph - N/A   Overcast
4:55 AM 70.2 °F - 62.2 °F 76% 29.98 in 10.0 mi North 5.8 mph - N/A   Overcast
5:55 AM 70.9 °F - 62.8 °F 75% 29.99 in 10.0 mi Calm Calm - N/A   Overcast
6:55 AM 71.2 °F - 62.6 °F 74% 29.99 in 10.0 mi North 3.5 mph - N/A   Mostly Cloudy
7:55 AM 71.1 °F - 64.2 °F 79% 30.00 in 10.0 mi NNE 3.5 mph - N/A   Mostly Cloudy
8:55 AM 76.6 °F - 64.2 °F 65% 30.01 in 10.0 mi NE 5.8 mph - N/A   Mostly Cloudy
9:55 AM 78.6 °F - 63.3 °F 59% 30.02 in 10.0 mi NNE 6.9 mph - N/A   Mostly Cloudy
10:55 AM 82.9 °F 83.5 °F 61.2 °F 48% 30.02 in 10.0 mi NE 8.1 mph - N/A   Mostly Cloudy
11:55 AM 85.5 °F 85.4 °F 60.4 °F 43% 30.02 in 10.0 mi East 10.4 mph - N/A   Scattered Clouds
12:55 PM 86.2 °F 85.9 °F 60.3 °F 41% 30.01 in 10.0 mi Variable 3.5 mph - N/A   Mostly Cloudy
1:55 PM 90.0 °F 88.3 °F 56.3 °F 32% 29.99 in 10.0 mi NE 10.4 mph - N/A   Scattered Clouds
2:55 PM 90.9 °F 88.7 °F 54.3 °F 29% 29.97 in 10.0 mi East 9.2 mph 18.4 mph N/A   Partly Cloudy
3:55 PM 90.1 °F 88.8 °F 57.6 °F 33% 29.96 in 10.0 mi NNE 8.1 mph - N/A   Partly Cloudy
4:55 PM 90.1 °F 89.3 °F 59.0 °F 35% 29.96 in 10.0 mi NNE 4.6 mph - N/A   Scattered Clouds
5:55 PM 90.9 °F 89.4 °F 56.8 °F 32% 29.96 in 10.0 mi ENE 8.1 mph - 0.00 in   Clear
6:55 PM 90.1 °F 88.8 °F 57.2 °F 33% 29.94 in 10.0 mi NE 4.6 mph - N/A   Scattered Clouds
7:55 PM 88.7 °F 88.0 °F 59.0 °F 37% 29.94 in 10.0 mi NNE 4.6 mph - N/A   Partly Cloudy
8:55 PM 84.7 °F 84.4 °F 59.0 °F 42% 29.95 in 10.0 mi NNE 4.6 mph - N/A   Scattered Clouds
9:55 PM 80.2 °F 81.3 °F 61.7 °F 53% 29.97 in 10.0 mi NE 5.8 mph - N/A   Partly Cloudy
10:55 PM 79.2 °F - 63.1 °F 58% 30.04 in 10.0 mi South 3.5 mph - N/A   Clear
11:55 PM 74.8 °F - 65.5 °F 73% 30.00 in 10.0 mi Calm Calm - N/A   Clear